Regional Weather Roundup
Issued by NWS

Home | Current Version | Previous Version | Text Only | Print | Product List | Glossary On
Versions: 1 2 3 4 5 6 7 8 9 10 11 12 13 14 15 16 17 18 19 20 21 22 23 24 25 26 27 28 29 30 31 32 33 34 35 36 37 38 39 40 41 42 43 44 45 46 47 48 49 50
000
ASUS43 KMPX 290901
RWRMN
WEATHER ROUNDUP FOR MINNESOTA
NATIONAL WEATHER SERVICE TWIN CITIES/CHANHASSEN MN
400 AM CDT MON AUG 29 2016


NOTE: "FAIR" INDICATES FEW OR NO CLOUDS BELOW 12,000 FEET WITH NO
SIGNIFICANT WEATHER AND/OR OBSTRUCTIONS TO VISIBILITY. N/A MEANS
CURRENT SKY AND/OR WEATHER CONDITIONS ARE NOT AVAILABLE.

MNZ060>063-068>070-291000-
   Twin Cities Metro

CITY           SKY/WX    TMP DP  RH WIND       PRES   REMARKS
TWIN CITIES    PTCLDY    72  69  90 SE6       30.14R
ST PAUL        CLEAR     69  68  96 SE6       30.14R
CRYSTAL        CLEAR     71  68  90 S3        30.12R
BLAINE         CLEAR     72  72 100 SE3       30.14R
LAKEVILLE      CLEAR     70  70 100 S5        30.14S
EDEN PRAIRIE   CLEAR     73  69  87 S7        30.12R
LAKEVILLE      CLEAR     70  70 100 S5        30.14S
SOUTH ST PAUL  CLEAR     70  69  96 S3        30.14R
LAKE ELMO      FAIR      70  70 100 S3        30.16R
$$
MNZ001>005-007-008-013>017-022>024-027-028-291000-
   Northwest Minnesota

CITY           SKY/WX    TMP DP  RH WIND       PRES   REMARKS
BEMIDJI        TSTM      64  62  94 S12       30.15R
HALLOCK        CLOUDY    66  64  94 N6        30.00R
ROSEAU         CLOUDY    66  61  82 NW12      30.05R
WARROAD        CLOUDY    64  61  88 SE12      29.99F
THIEF RVR FALL CLOUDY    65  62  90 S5        30.02S
CROOKSTON      CLOUDY    68  64  88 CALM      30.01F
FOSSTON        CLOUDY    64  63  94 SE5       30.06S
DETROIT LAKES  CLOUDY    66  64  94 SE8       30.08R
MOORHEAD       CLOUDY    72  66  83 SE7       30.02R
PARK RAPIDS    CLOUDY    64  61  90 E9        30.11R
MAHNOMEN       FAIR      64  63  95 E9        30.05R
$$
MNZ006-009>011-018-025>026-291000-
   North Central Minnesota

CITY           SKY/WX    TMP DP  RH WIND       PRES   REMARKS
BAUDETTE       CLOUDY    65  61  87 S10G22    30.02F
FLAG ISLAND    CLOUDY    66  64  94 S3        30.02R
INTL FALLS     CLOUDY    63  61  93 VRB6      30.05F
WASKISH        LGT RAIN  63  63 100 E8        30.07F
BIG FORK       TSTM      63  61  94 E12G17    30.08F
LONGVILLE      TSTM      64  63  94 SE3       30.16R
GRAND RAPIDS   RAIN      61  60  97 SE9       30.17F
ORR            CLOUDY    63  59  88 S7        30.11R
COOK           TSTM      63  63 100 S7        30.16R
WALKER         TSTM      64  63  97 SW5       30.16R
$$
MNZ012-019>021-037-291000-
   Northeast Minnesota

CITY           SKY/WX    TMP DP  RH WIND       PRES   REMARKS
DULUTH         LGT RAIN  65  64  97 N14       30.18R
ELY            RAIN      61  61 100 SE6       30.15F
HIBBING        RAIN      60  60 100 SE7       30.19F FOG
DULUTH HARBOR  CLOUDY    66  64  94 NE14      30.14R
TWO HARBORS    DRIZZLE   66  63  88 N9G16     30.13S
SILVER BAY     RAIN      64  61  88 N3        30.15F
G MARAIS ARPRT CLOUDY    59  55  88 NE5       30.19F
$$
MNZ029>031-032-039>041-046>048-054>057-064-291000-
   West Central Minnesota

CITY           SKY/WX    TMP DP  RH WIND       PRES   REMARKS
FERGUS FALLS   CLOUDY    70  64  83 SE8       30.06S
WHEATON        CLOUDY    73  72  94 S8        30.02F
MORRIS         CLEAR     72  70  94 SE8       30.04S FOG
ALEXANDRIA     CLOUDY    72  68  87 E14       30.12R
ELBOW LAKE     CLOUDY    73  71  92 SE9       30.06R
WADENA         TSTM      64  63  94 SE15      30.12R
GLENWOOD       CLOUDY    72  68  88 S6        30.10R
APPLETON       PTCLDY    73  66  78 S7        30.05S
BENSON         CLEAR     70  66  88 S8        30.07S
ORTONVILLE     PTCLDY    72  66  83 S5        30.04S
MADISON        CLEAR     70  66  88 S5        30.07R
WILLMAR        FAIR      70  66  88 CALM      30.11R
$$
MNZ033>034-036-042>043-049>051-058-059-291000-
   Central Minnesota

CITY           SKY/WX    TMP DP  RH WIND       PRES   REMARKS
ST CLOUD       CLOUDY    69  69 100 SE5       30.11R
SAUK CENTRE    FAIR      69  68  95 E6        30.13R
PAYNESVILLE    CLEAR     70  70 100 S7        30.11S
AITKIN         TSTM      66  61  82 CALM      30.17S
PINE RIVER     CLOUDY    63  63 100 CALM      30.20R
BRAINERD       LGT RAIN  64  63  96 VRB3      30.14F
STAPLES        TSTM      63  61  94 E5        30.13F
LONG PRAIRIE   CLOUDY    70  61  73 N8G16     30.16R
LITTLE FALLS   CLOUDY    70  61  73 CALM      30.16S
LITCHFIELD     CLEAR     72  70  94 CALM      30.12R
BUFFALO        CLEAR     70  67  90 SE5       30.13R
MAPLE LAKE     CLEAR     70  69  97 SE5       30.13R
HUTCHINSON     CLOUDY    69  68  95 S5        30.13R
$$
MNZ037-044-045-052-053-291000-
   East Central Minnesota

CITY           SKY/WX    TMP DP  RH WIND       PRES   REMARKS
PRINCETON      CLOUDY    70  68  94 CALM      30.12S
MORA           CLOUDY    64  64 100 CALM      30.16R FOG
CAMBRIDGE      CLOUDY    72  66  83 SE5       30.11S
RUSH CITY      PTCLDY    67  66  96 SE3       30.13F
MOOSE LAKE     CLOUDY    68  64  88 CALM      30.13R
HINCKLEY       FAIR      66  66 100 CALM      30.15R FOG
CLOQUET        CLOUDY    64  63  94 CALM      30.15R
MCGREGOR       CLOUDY    66  63  88 NW3       30.20R THUNDER
$$
MNZ071>073-080-081-089-090-097-098-291000-
   Southwest Minnesota

CITY           SKY/WX    TMP DP  RH WIND       PRES   REMARKS
MONTEVIDEO     CLEAR     70  68  94 SW8       30.09F
GRANITE FALLS  CLEAR     69  66  91 SE8       30.11S
CANBY          CLEAR     72  67  82 SW8       30.09S
MARSHALL       CLEAR     68  65  90 S7        30.11R
REDWOOD FALLS  CLEAR     68  64  87 S10       30.10F
OLIVIA         CLEAR     70  66  88 S7        30.09F
PIPESTONE      CLEAR     66  64  94 S7        30.14R
WINDOM         CLEAR     68  63  83 S10       30.15R
WORTHINGTON    CLEAR     65  63  93 S12       30.16R
JACKSON          N/A     66  63  88 S7        30.16R
TRACY          CLEAR     68  65  90 S8        30.13R
SLAYTON        CLEAR     66  63  88 S9        30.15R
$$
MNZ065>067-074>077-082>085-091>093-291000-
   South Central Minnesota

CITY           SKY/WX    TMP DP  RH WIND       PRES   REMARKS
MANKATO        CLEAR     70  64  83 S7        30.15S
NEW ULM          N/A     66  64  94 S5        30.13S
ST JAMES       CLEAR     61  59  94 SE3       30.15S
FAIRMONT       CLEAR     63  62  97 SW5       30.16R
GLENCOE        CLEAR     71  70  98 S5        30.12R
FARIBAULT      CLEAR     70  70 100 S5        30.16S
OWATONNA       CLEAR     72  68  88 S6        30.17R
WASECA         CLEAR     64  63  94 SE5       30.17S FOG
ALBERT LEA     CLEAR     70  68  94 S3        30.17S FOG
$$
MNZ078>079-086>088-094>096-291000-
   Southeast Minnesota

CITY           SKY/WX    TMP DP  RH WIND       PRES   REMARKS
ROCHESTER      CLEAR     66  65  96 S7        30.19S FOG
RED WING       PTCLDY    72  70  94 SE3       30.15R
DODGE CENTER   CLEAR     66  64  94 S5        30.18S FOG
WINONA         PTCLDY    70  68  94 SE3       30.18S
AUSTIN         CLEAR     68  66  94 CALM      30.18S FOG
PRESTON        CLEAR     65  64  94 SE5       30.21R
$$
ABBREVIATIONS USED IN REMARKS
   TC - TEMPERATURES IN CELSIUS
  WCI - WIND CHILL INDEX
   HX - HEAT INDEX
  VSB - VISIBILITY
$$




USA.gov is the U.S. government's official web portal to all federal, state and local government web resources and services.